sat.trackr.live / text

‹ back to catalog

2024-092D

NORAD 59776 · 2024-092D

PAYLOAD ACTIVE UNKNOWN

§ Identity

Operator
Country
CIS
Launch date
2024-05-16
Launch site
PLMSC
Launch vehicle
Mass (kg)
RCS (m²)

External: N2YO · Heavens-Above · Gunter

§ Orbital elements

Epoch: 2026-09-22T07:42:27.961344Z

Period
93.49 min
Inclination
97.6693°
Eccentricity
0.0006756
Mean motion
15.40260666 rev/d
Perigee alt
440.7 km
Apogee alt
449.9 km
Semi-major
6,823.5 km
B*
3.9735e-4
RAAN
42.7343°
Arg perigee
156.9100°
Mean anomaly
203.2450°
Rev number
13,068

§ Raw data

2024-092D1 59776U 24092D   26265.32115696  .00015926  00000+0  39735-3 0  99972 59776  97.6693  42.7343 0006756 156.9100 203.2450 15.40260666130685

JSON: /api/v1/satellites/59776 · /tle

For live sub-satellite position, see the globe view (requires WebGL).

§ Visibility from observer

Set your observer location to see the next 7 days of passes ≥ 10°. The values pass through the URL so the page stays shareable.

No JS? Fill the form by hand. The geolocation button needs JavaScript.

§ Radio — SatNOGS DB

ModeDescriptionDownlinkUplink
FSK FSK 2k4 USP 401.050 MHz

1 transmitter · refreshed weekly from db.satnogs.org